Location: Warszawa
(52.2500°N, 21.0000°E)
Time: 20:31:34
(UTC+02:00)

Vanguard 2 - Pass Details

Date: 02 February 2023
Orbit: 553 x 2927 km, 32.9° (Epoch: 27 March)

Event Time Altitude Azimuth Distance (km) Brightness Sun altitude
Rises 21:40:26 0° 222° (SW) 5,629 12.0 -46.3°
Reaches altitude 10° 21:44:23 10° 213° (SSW) 4,930 11.5 -46.7°
Enters shadow 21:44:40 11° 212° (SSW) 4,886 11.5 -46.8°
